TimeEET,TemperatureF,Dew PointF,Humidity,Sea Level PressureIn,VisibilityMPH,Wind Direction,Wind SpeedMPH,Gust SpeedMPH,PrecipitationIn,Events,Conditions,WindDirDegrees,DateUTC
12:20 AM,23.0,15.8,74,30.12,6.2,WSW,13.8,-,N/A,,Scattered Clouds,250,2013-01-17 22:20:00
12:50 AM,26.6,15.8,64,30.12,6.2,WSW,16.1,-,N/A,,Scattered Clouds,240,2013-01-17 22:50:00
1:20 AM,24.8,14.0,64,30.12,6.2,WSW,17.3,-,N/A,,Scattered Clouds,240,2013-01-17 23:20:00
1:50 AM,23.0,14.0,68,30.12,6.2,West,12.7,-,N/A,,Scattered Clouds,260,2013-01-17 23:50:00
2:00 AM,22,14,60,,6,West,11.5,,,,Partly Cloudy,260,2013-01-18 00:00:00
2:20 AM,21.2,12.2,68,30.12,6.2,West,9.2,-,N/A,,Scattered Clouds,280,2013-01-18 00:20:00
2:50 AM,24.8,14.0,64,30.09,6.2,WSW,11.5,-,N/A,,Scattered Clouds,240,2013-01-18 00:50:00
3:20 AM,21.2,14.0,74,30.09,6.2,West,9.2,-,N/A,,Scattered Clouds,280,2013-01-18 01:20:00
3:50 AM,19.4,14.0,80,30.09,6.2,WNW,8.1,-,N/A,,Scattered Clouds,290,2013-01-18 01:50:00
4:20 AM,19.4,12.2,74,30.09,6.2,WNW,10.4,-,N/A,,Scattered Clouds,290,2013-01-18 02:20:00
4:50 AM,17.6,10.4,73,30.12,6.2,SW,4.6,-,N/A,,Scattered Clouds,220,2013-01-18 02:50:00
5:20 AM,14.0,8.6,79,30.12,6.2,West,5.8,-,N/A,,Scattered Clouds,270,2013-01-18 03:20:00
5:50 AM,14.0,8.6,79,30.12,6.2,South,2.3,-,N/A,,Scattered Clouds,180,2013-01-18 03:50:00
6:20 AM,12.2,6.8,79,30.12,6.2,Variable,2.3,-,N/A,,Partly Cloudy,0,2013-01-18 04:20:00
6:50 AM,14.0,6.8,73,30.12,6.2,WNW,3.5,-,N/A,,Partly Cloudy,290,2013-01-18 04:50:00
7:20 AM,10.4,6.8,85,30.15,6.2,Variable,2.3,-,N/A,,Scattered Clouds,0,2013-01-18 05:20:00
7:50 AM,15.8,8.6,73,30.15,6.2,ENE,3.5,-,N/A,,Scattered Clouds,70,2013-01-18 05:50:00
8:00 AM,15,11,75,,12,ENE,3.5,,,,Partly Cloudy,60,2013-01-18 06:00:00
8:20 AM,17.6,10.4,73,30.15,6.2,Variable,2.3,-,N/A,,Scattered Clouds,0,2013-01-18 06:20:00
8:50 AM,17.6,10.4,73,30.15,6.2,Variable,1.2,-,N/A,,Scattered Clouds,0,2013-01-18 06:50:00
9:20 AM,19.4,12.2,74,30.15,6.2,Variable,2.3,-,N/A,,Scattered Clouds,0,2013-01-18 07:20:00
9:50 AM,21.2,12.2,68,30.15,6.2,Variable,2.3,-,N/A,,Scattered Clouds,0,2013-01-18 07:50:00
10:20 AM,23.0,12.2,63,30.15,6.2,Calm,Calm,-,N/A,,Scattered Clouds,0,2013-01-18 08:20:00
10:50 AM,28.4,15.8,59,30.12,6.2,Calm,Calm,-,N/A,,Scattered Clouds,0,2013-01-18 08:50:00
11:20 AM,23.0,14.0,68,30.12,6.2,Variable,2.3,-,N/A,,Scattered Clouds,0,2013-01-18 09:20:00
11:50 AM,24.8,14.0,64,30.12,6.2,Variable,2.3,-,N/A,,Scattered Clouds,0,2013-01-18 09:50:00
12:20 PM,24.8,15.8,69,30.09,6.2,West,4.6,-,N/A,,Scattered Clouds,260,2013-01-18 10:20:00
12:50 PM,26.6,15.8,64,30.09,6.2,Variable,2.3,-,N/A,,Mostly Cloudy,0,2013-01-18 10:50:00
1:20 PM,26.6,15.8,64,30.09,6.2,Calm,Calm,-,N/A,,Mostly Cloudy,0,2013-01-18 11:20:00
1:50 PM,26.6,15.8,64,30.09,6.2,NW,3.5,-,N/A,,Mostly Cloudy,320,2013-01-18 11:50:00
2:00 PM,26,15,49,,12,NNW,3.5,,,,Partly Cloudy,330,2013-01-18 12:00:00
2:20 PM,26.6,15.8,64,30.09,6.2,Variable,2.3,-,N/A,,Mostly Cloudy,0,2013-01-18 12:20:00
2:50 PM,24.8,17.6,74,30.06,6.2,Variable,2.3,-,N/A,,Mostly Cloudy,0,2013-01-18 12:50:00
3:20 PM,23.0,15.8,74,30.09,6.2,NE,3.5,-,N/A,,Mostly Cloudy,40,2013-01-18 13:20:00
3:50 PM,21.2,15.8,80,30.09,6.2,ESE,3.5,-,N/A,,Mostly Cloudy,120,2013-01-18 13:50:00
4:20 PM,15.8,12.2,86,30.09,6.2,NNW,4.6,-,N/A,,Scattered Clouds,330,2013-01-18 14:20:00
4:50 PM,15.8,12.2,86,30.09,6.2,Variable,1.2,-,N/A,,Scattered Clouds,0,2013-01-18 14:50:00
5:20 PM,12.2,8.6,85,30.09,6.2,Calm,Calm,-,N/A,,Scattered Clouds,0,2013-01-18 15:20:00
5:50 PM,12.2,8.6,85,30.09,6.2,Variable,2.3,-,N/A,,Scattered Clouds,0,2013-01-18 15:50:00
6:20 PM,12.2,8.6,85,30.12,6.2,Variable,2.3,-,N/A,,Scattered Clouds,0,2013-01-18 16:20:00
6:50 PM,14.0,10.4,86,30.12,6.2,Variable,2.3,-,N/A,,Scattered Clouds,0,2013-01-18 16:50:00
7:20 PM,14.0,10.4,86,30.12,6.2,Variable,1.2,-,N/A,,Scattered Clouds,0,2013-01-18 17:20:00
7:50 PM,14.0,10.4,86,30.09,6.2,Variable,1.2,-,N/A,,Scattered Clouds,0,2013-01-18 17:50:00
8:20 PM,12.2,10.4,92,30.09,6.2,Calm,Calm,-,N/A,,Scattered Clouds,0,2013-01-18 18:20:00
8:50 PM,12.2,8.6,85,30.09,6.2,Variable,1.2,-,N/A,,Scattered Clouds,0,2013-01-18 18:50:00
9:20 PM,10.4,8.6,92,30.09,6.2,Variable,1.2,-,N/A,,Scattered Clouds,0,2013-01-18 19:20:00
9:50 PM,12.2,8.6,85,30.09,6.2,Variable,2.3,-,N/A,,Scattered Clouds,0,2013-01-18 19:50:00
10:20 PM,12.2,8.6,85,30.09,6.2,Variable,1.2,-,N/A,,Scattered Clouds,0,2013-01-18 20:20:00
10:50 PM,12.2,8.6,85,30.09,6.2,Variable,2.3,-,N/A,,Scattered Clouds,0,2013-01-18 20:50:00
11:20 PM,12.2,10.4,92,30.09,6.2,NW,3.5,-,N/A,,Scattered Clouds,320,2013-01-18 21:20:00
11:50 PM,15.8,10.4,79,30.09,6.2,Variable,3.5,-,N/A,,Scattered Clouds,0,2013-01-18 21:50:00